DMSP 5D-2 F11 DEB, 28325

Orbit data source: Space-Track

DMSP 5D-2 F11 DEB, 28325 is space debris in SSO originally from a launch on Thu, 28 Nov 1991 UTC launched from the Air Force Western Test Range (AFWTR). Debris objects in space refer to the collection of defunct objects orbiting the Earth. Examples of debris include non-operational satellites, rocket bodies, and fragments generated from explosions, collisions, or faulty payload assembly.

Loading next visibility...
Identifier
28325, 1991-082AN
Orbit
SSO
Last TLE update
2 days ago
Origin
Manufacturer
Unknown
Mission
Spacecraft
Bus & Motor
Unknown
Mass
Unknown
Launch date (UTC)
1991-11-28 (34 years ago)
Launch vehicle
Unknown
Launch site
Air Force Western Test Range (AFWTR)
Object type
Payload
Rocket body
Debris
Shape & HBR
Unknown
Radar Cross Section
Small (<0.1 m²)

Expand to show TLE details & history

TLE from 2 days ago
0 DMSP 5D-2 F11 DEB
1 28325U 91082AN  25209.46252494  .00015469  00000-0  29922-2 0  9995
2 28325  98.5726  76.7489 0042647  63.0384  57.6974 14.62859643 95186
Epoch: 2025-07-28T11:06Z
TLE epoch observation values (Epoch: 2025-07-28T11:06:02.154Z)
Latitude
57.90758°
Longitude
157.70235°
Altitude
677.688 km
Speed
7.532 km/s
True Right ascension
18h 02m 19s
True Declination
57° 45' 03"
Sunlit
Object was in daylight at epoch
Visualization orbit readout
Latitude
16.98903°
Longitude
-36.64555°
Altitude
662.834 km
Speed
7.54 km/s
Apparent Right ascension
08h 07m 33s
Apparent Declination
-19° 53' 12"
Sunlit
Object is in daylight
Visualization observer readout
Local Sidereal Time
01:25:36
Azimuth
99.279° ESE
Elevation
-20.459°
Doppler factor
1
Orbital elements
Apogee altitude
711.156 km
Perigee altitude
650.945 km
Semi-major axis
7,059.187 km
Eccentricity
0.00426
Inclination
98.5726°
RAAN
76.7489°
Arg. of periapsis
63.0384°
True anomaly
58.11164°
Mean anomaly
57.6974°
Eccentric anomaly
57.9044°
Mean motion
3.65941 °/min
Orbital period
98.38 mins
BSTAR
0.0029922
Loading maneuver chart data...
Loading SW <> Apogee altitude chart data...
|